METEOR 2-11 DEB, 43310

Orbit data source: Space-Track

METEOR 2-11 DEB, 43310 is space debris in LEO originally from a launch on Thu, 05 Jul 1984 UTC launched from the Plesetsk Missile And Space Complex (PKMTR). Debris objects in space refer to the collection of defunct objects orbiting the Earth. Examples of debris include non-operational satellites, rocket bodies, and fragments generated from explosions, collisions, or faulty payload assembly.

Loading next visibility...
Identifier
43310, 1984-072V
Orbit
LEO
Country
Flag of CISCIS
Related business
Manufacturer
Unknown
Mission
Spacecraft
Bus & Motor
Unknown
Mass
Unknown
Launch date (UTC)
1984-07-05 (41 years ago)
Launch vehicle
Unknown
Launch site
Plesetsk Missile And Space Complex (PKMTR)
Object type
Payload
Rocket body
Debris
Shape & HBR
Unknown shape, 0.1 m
Radar Cross Section
Small (<0.1 m²)

Expand to show TLE details & history
Last TLE update: 6 days ago

TLE from 6 days ago
0 METEOR 2-11 DEB
1 43310U 84072V   25340.86580522  .00002045  00000-0  15139-2 0  9994
2 43310  82.5250 183.7084 0020559 277.8616  82.0216 13.94721858557019
Epoch: 2025-12-06T20:46Z
TLE epoch observation values (Epoch: 2025-12-06T20:46:45.571Z)
Latitude
-0.00008°
Longitude
156.13111°
Altitude
912.996 km
Speed
7.396 km/s
True Right ascension
12h 14m 50s
True Declination
0° 00' 00"
Sunlit
Object was in daylight at epoch
Visualization orbit readout
Latitude
Unknown
Longitude
Unknown
Altitude
Unknown
Speed
Unknown
Apparent Right ascension
Unknown
Apparent Declination
Unknown
Sunlit
N/A
Visualization observer readout
Local Sidereal Time
06:16:38
Azimuth
Unknown
Elevation
Unknown
Doppler factor
Unknown
Orbital elements
Apogee altitude
924.25 km
Perigee altitude
894.286 km
Semi-major axis
7,287.405 km
Eccentricity
0.00206
Inclination
82.525°
RAAN
183.7084°
Arg. of periapsis
277.8616°
True anomaly
82.25499°
Mean anomaly
82.0216°
Eccentric anomaly
82.13829°
Mean motion
3.48886 °/min
Orbital period
103.19 mins
BSTAR
0.0015139
Loading maneuver chart data...
Computing Atmospheric mass density...
Loading historical data...
Loading historical data...
Loading historical data...
Loading historical data...
Loading historical data...
Loading historical data...
Loading historical data...

Documentation

Showing up to 5 results
|